Location: Montbazon
(47.2835°N, 0.6999°E)
Time: 05:19:19
(UTC+00:00)

CZ-3 R/B - Pass Details

Date: 08 November 2025
Orbit: 547 x 10008 km, 28.3° (Epoch: 10 December)

Event Time Altitude Azimuth Distance (km) Brightness Sun altitude
Rises 05:04:53 0° 236° (SW) 7,865 5.7 -18.2°
Reaches altitude 10° 05:13:53 10° 220° (SW) 4,964 4.8 -16.7°
Maximum altitude 05:20:23 16° 187° (S) 3,113 4.1 -15.6°
Drops below altitude 10° 05:24:21 10° 150° (SSE) 2,784 4.4 -14.9°
Sets 05:27:14 0° 126° (SE) 3,227 5.4 -14.4°
